FW2602 Weather Reports


time (UTC)temp
F
wind
direction
speed
knots
gust
knots
rain 1hr
in
rain 24hr
in
rain mn
in
humidity
%
barometer
mb
20260506202010 48 317 0.9 4.3 0.02 0.46 0.43 94 1004.5
20260506201518 48 288 0.9 3.5 0.02 0.46 0.43 94 1004.4
20260506201009 49 302 0.0 1.7 0.01 0.45 0.42 94 1004.4
20260506200520 49 329 0.0 3.5 0.01 0.45 0.42 93 1004.3
20260506200008 49 89 0.9 2.6 0.01 0.45 0.42 93 1004.3
20260506195519 49 77 0.0 2.6 0.01 0.45 0.42 92 1004.2
20260506195007 50 99 0.0 2.6 0.00 0.44 0.41 92 1004.1
20260506194526 50 353 0.0 2.6 0.00 0.44 0.41 91 1004.2
20260506194023 51 314 0.0 2.6 0.00 0.44 0.41 90 1004.3
20260506193508 52 79 0.9 4.3 0.00 0.44 0.41 89 1004.2
20260506193016 54 90 0.9 5.2 0.00 0.44 0.41 89 1004.1
20260506192527 55 80 1.7 4.3 0.00 0.44 0.41 86 1003.9
20260506192011 58 117 0.0 10.4 0.00 0.44 0.41 86 1003.8
20260506191010 59 294 1.7 8.7 0.00 0.44 0.41 89 1003.7
20260506190523 59 294 4.3 8.7 0.00 0.44 0.41 89 1003.9
20260506190008 59 277 3.5 8.7 0.00 0.44 0.41 90 1003.9
20260506185520 59 271 1.7 9.6 0.00 0.44 0.41 91 1003.9
20260506185006 59 302 5.2 9.6 0.01 0.44 0.41 91 1003.8
20260506184519 59 239 2.6 8.7 0.01 0.44 0.41 92 1003.7
20260506184020 59 237 4.3 8.7 0.01 0.44 0.41 92 1003.7
20260506183513 59 269 2.6 7.8 0.02 0.44 0.41 93 1003.8
20260506183020 58 274 1.7 7.8 0.02 0.44 0.41 93 1003.7
20260506182510 58 307 0.9 5.2 0.02 0.44 0.41 93 1003.8
20260506182019 58 279 0.9 4.3 0.02 0.44 0.41 93 1003.9
20260506181526 58 198 0.0 4.3 0.02 0.44 0.41 93 1003.9
20260506181011 58 285 1.7 4.3 0.03 0.44 0.41 93 1004.0
20260506180520 58 255 0.9 6.1 0.03 0.44 0.41 93 1004.0
20260506180005 58 283 1.7 6.1 0.04 0.44 0.41 93 1004.1
20260506175515 58 287 2.6 6.1 0.04 0.44 0.41 93 1004.2
20260506175103 58 235 0.0 3.5 0.04 0.43 0.40 93 1004.1
20260506174510 58 289 0.0 2.6 0.05 0.43 0.40 94 1004.2
20260506174016 58 274 0.0 2.6 0.05 0.43 0.40 93 1004.1
20260506173512 58 271 0.0 2.6 0.04 0.42 0.39 94 1004.1
20260506173012 58 214 0.0 0.9 0.05 0.42 0.39 94 1004.1
20260506172525 58 269 0.0 0.9 0.06 0.42 0.39 94 1004.2
20260506172009 58 270 0.0 1.7 0.07 0.42 0.39 94 1004.2
20260506171524 58 264 0.0 1.7 0.08 0.42 0.39 93 1004.2
20260506171011 58 149 0.0 1.7 0.07 0.41 0.38 94 1004.2
20260506170516 58 148 0.0 0.9 0.07 0.41 0.38 94 1004.2
20260506170017 58 148 0.0 0.0 0.07 0.40 0.37 94 1004.2
20260506165526 58 148 0.0 0.0 0.07 0.40 0.37 94 1004.2
20260506165014 58 148 0.0 0.0 0.06 0.39 0.36 94 1004.3
20260506164527 58 146 0.0 0.0 0.06 0.38 0.35 94 1004.3
20260506164009 57 146 0.0 0.9 0.06 0.38 0.35 94 1004.4
20260506163008 57 146 0.0 0.0 0.05 0.37 0.34 94 1004.4
20260506162519 57 146 0.0 2.6 0.05 0.36 0.33 94 1004.4
20260506162019 57 146 0.0 2.6 0.04 0.35 0.32 94 1004.5
20260506161510 57 111 0.0 4.3 0.03 0.34 0.31 94 1004.5
20260506161018 57 295 0.9 4.3 0.04 0.34 0.31 94 1004.4
20260506160514 57 262 0.9 3.5 0.04 0.34 0.31 94 1004.4
20260506160028 57 338 1.7 5.2 0.04 0.33 0.30 94 1004.4
20260506155526 57 314 0.9 7.8 0.05 0.33 0.30 94 1004.3
20260506155014 57 181 0.0 7.8 0.06 0.33 0.30 94 1004.2
20260506154525 57 86 0.9 5.2 0.05 0.32 0.28 94 1004.2
20260506154010 57 172 0.9 7.0 0.06 0.32 0.28 94 1004.3
20260506153519 56 271 0.0 7.0 0.06 0.32 0.28 94 1004.3
20260506153005 56 221 1.7 6.1 0.06 0.31 0.28 94 1004.3
20260506152517 56 46 1.7 7.0 0.07 0.31 0.28 94 1004.3
20260506152021 56 158 2.6 7.0 0.07 0.31 0.28 94 1004.3
20260506151517 56 264 0.9 6.1 0.08 0.31 0.28 94 1004.5
20260506151014 56 40 0.9 7.8 0.08 0.30 0.27 94 1004.6
20260506150523 56 104 0.9 7.8 0.09 0.30 0.27 94 1004.7
20260506150010 56 23 0.0 3.5 0.09 0.28 0.26 94 1004.8
20260506145520 56 170 0.9 4.3 0.09 0.28 0.25 94 1004.9
20260506145006 56 44 0.9 13.0 0.09 0.27 0.24 94 1004.8
20260506144520 56 40 0.9 13.0 0.10 0.27 0.24 94 1004.9
20260506144018 56 72 0.9 3.5 0.10 0.26 0.23 94 1004.9
20260506143507 55 72 0.9 4.3 0.10 0.26 0.23 94 1005.0
20260506143019 55 338 0.0 4.3 0.09 0.25 0.22 94 1005.2
20260506142527 55 224 0.0 4.3 0.09 0.24 0.21 93 1005.5
20260506142014 55 300 0.0 2.6 0.09 0.24 0.21 93 1005.6
20260506141524 55 329 0.0 2.6 0.08 0.23 0.20 93 1005.7
20260506141019 55 323 0.0 2.6 0.07 0.22 0.19 94 1005.6
20260506140510 55 301 0.0 1.7 0.07 0.21 0.18 93 1005.7
20260506140019 55 258 0.0 1.7 0.06 0.20 0.17 93 1005.7
20260506135510 55 296 0.0 1.7 0.05 0.19 0.16 93 1005.8
20260506135018 55 278 0.0 0.9 0.04 0.18 0.15 93 1005.9
20260506134528 55 292 0.0 0.9 0.03 0.17 0.14 92 1005.9
20260506134012 55 292 0.0 0.0 0.02 0.16 0.13 92 1005.9
20260506133523 55 293 0.0 0.9 0.02 0.16 0.13 92 1005.8
20260506133007 55 293 0.0 2.6 0.02 0.16 0.13 92 1005.8
20260506132518 55 295 0.0 1.7 0.01 0.15 0.12 92 1005.6
20260506132021 55 303 0.0 2.6 0.02 0.15 0.12 92 1005.5
20260506131529 55 255 0.0 2.6 0.02 0.15 0.12 92 1005.6
20260506131014 54 272 0.9 2.6 0.03 0.15 0.12 92 1005.6
20260506130525 54 53 0.0 3.5 0.02 0.14 0.11 91 1005.4
20260506130008 55 290 1.7 3.5 0.03 0.14 0.11 91 1005.4
20260506125517 55 345 0.0 3.5 0.04 0.14 0.11 91 1005.3
20260506125006 55 314 0.9 4.3 0.05 0.14 0.11 91 1005.3
20260506124517 55 295 0.0 5.2 0.05 0.14 0.11 92 1005.3
20260506124020 54 338 0.9 5.2 0.06 0.14 0.11 92 1005.5
20260506123511 54 288 0.9 4.3 0.06 0.14 0.11 92 1005.7
20260506123017 54 301 0.9 3.5 0.07 0.14 0.11 92 1005.6
20260506122525 54 294 0.0 4.3 0.06 0.13 0.10 92 1005.7
20260506122011 54 269 0.9 4.3 0.07 0.13 0.10 92 1005.6
20260506121520 54 218 0.9 7.8 0.07 0.13 0.10 93 1005.7
20260506121011 54 342 0.9 7.8 0.06 0.12 0.09 93 1005.8
20260506120532 54 313 1.7 7.0 0.07 0.12 0.09 94 1006.1
20260506120034 53 262 1.7 7.0 0.06 0.11 0.08 95 1006.1
20260506115533 53 312 0.0 2.6 0.05 0.10 0.07 95 1006.1
20260506115033 53 111 0.0 2.6 0.05 0.09 0.06 95 1006.2
20260506114530 52 259 0.0 1.7 0.05 0.09 0.06 95 1006.3
20260506114032 52 168 0.0 1.7 0.04 0.08 0.05 95 1006.3
20260506113530 51 95 0.9 2.6 0.04 0.08 0.05 94 1006.2
20260506113029 51 74 0.0 3.5 0.03 0.07 0.04 93 1006.3
20260506112530 52 304 0.0 2.6 0.03 0.07 0.04 95 1006.3
20260506112029 52 86 0.0 1.7 0.02 0.06 0.03 95 1006.2
20260506111528 51 104 0.0 0.9 0.03 0.06 0.03 94 1006.2
20260506111030 51 104 0.0 1.7 0.03 0.06 0.03 93 1006.1
20260506110532 51 104 0.0 0.9 0.02 0.05 0.02 94 1006.0
20260506110027 51 95 0.0 1.7 0.02 0.05 0.02 94 1005.9
20260506105527 52 94 0.0 1.7 0.02 0.05 0.02 95 1005.8
20260506105030 51 91 0.0 2.6 0.01 0.04 0.01 95 1005.8
20260506104526 51 88 0.9 2.6 0.01 0.04 0.01 94 1005.9
20260506104025 50 84 0.0 0.9 0.01 0.04 0.01 94 1005.8
20260506103525 50 61 0.0 0.9 0.01 0.04 0.01 94 1005.9
20260506103035 50 64 0.0 1.7 0.01 0.04 0.01 93 1005.9
20260506102525 50 3 0.0 1.7 0.01 0.04 0.01 93 1006.0
20260506102025 50 293 0.0 1.7 0.01 0.04 0.01 93 1006.0
20260506101524 50 49 0.0 0.9 0.00 0.03 0.00 93 1006.0
20260506101023 50 48 0.0 0.9 0.00 0.03 0.00 93 1005.9
20260506100525 50 50 0.0 0.9 0.00 0.03 0.00 93 1005.8
20260506100124 50 49 0.0 0.9 0.00 0.03 0.00 93 1005.7
20260506095523 50 359 0.0 0.9 0.00 0.05 0.00 92 1005.8
20260506095021 50 295 0.0 0.9 0.00 0.05 0.00 92 1005.8
20260506094528 50 295 0.0 1.7 0.00 0.05 0.00 92 1005.9
20260506094024 50 295 0.0 2.6 0.00 0.05 0.00 91 1005.9
20260506093519 50 290 0.0 2.6 0.00 0.05 0.00 91 1005.8
20260506093020 50 253 0.0 1.7 0.00 0.05 0.00 90 1005.5
20260506092521 50 359 0.0 0.9 0.00 0.05 0.00 90 1005.6
20260506092021 51 37 0.0 0.9 0.00 0.05 0.00 90 1005.6
20260506091518 50 73 0.0 0.0 0.00 0.05 0.00 90 1005.7
20260506091016 51 73 0.0 0.0 0.00 0.05 0.00 89 1005.7
20260506090516 51 73 0.0 0.0 0.00 0.05 0.00 89 1005.5
20260506090016 51 74 0.0 0.9 0.00 0.05 0.00 89 1005.5
20260506085518 51 73 0.0 1.7 0.00 0.05 0.00 89 1005.6
20260506085015 51 73 0.0 1.7 0.00 0.05 0.00 89 1005.7
20260506084514 51 58 0.0 0.0 0.00 0.05 0.00 88 1005.8
20260506084013 51 58 0.0 0.0 0.00 0.05 0.00 88 1006.0
20260506083513 51 58 0.0 0.0 0.00 0.05 0.00 88 1006.0
20260506083013 51 58 0.0 0.9 0.00 0.05 0.00 88 1005.9
20260506082516 51 58 0.0 0.9 0.00 0.05 0.00 88 1006.0
20260506082011 51 84 0.0 1.7 0.00 0.05 0.00 88 1006.0
20260506081510 51 84 0.9 1.7 0.00 0.05 0.00 87 1006.0
20260506081010 51 84 0.0 0.9 0.00 0.05 0.00 87 1006.1
20260506080510 51 84 0.0 0.0 0.00 0.05 0.00 87 1006.3
20260506073505 52 85 0.0 0.0 0.00 0.05 0.00 86 1006.6
20260506073008 52 85 0.0 0.0 0.00 0.05 0.00 85 1006.6
20260506072505 52 84 0.0 0.9 0.00 0.05 0.00 85 1006.7
20260506072006 52 84 0.0 1.7 0.00 0.05 0.00 85 1006.6
20260506071505 52 84 0.0 1.7 0.00 0.05 0.00 85 1006.7
20260506071003 52 86 0.0 3.5 0.00 0.05 0.00 85 1006.6
20260506070505 52 77 0.9 3.5 0.00 0.05 0.00 85 1006.6
20260506062059 52 266 0.0 0.9 0.00 0.05 0.00 85 1007.0
20260506061556 52 265 0.0 0.9 0.00 0.05 0.00 85 1007.0
20260506061100 52 266 0.0 0.9 0.00 0.05 0.00 85 1007.1
20260506060555 52 265 0.0 0.9 0.00 0.05 0.00 85 1007.0
20260506060119 52 265 0.0 0.9 0.00 0.05 0.00 85 1007.1
20260506051050 52 265 0.0 0.0 0.00 0.05 0.00 84 1007.7
20260506050550 52 266 0.0 0.0 0.00 0.05 0.00 84 1007.7
20260506045050 53 265 0.0 0.9 0.00 0.05 0.00 83 1007.4
20260506044554 53 264 0.0 1.7 0.00 0.05 0.00 83 1007.6
20260506044046 53 253 0.0 1.7 0.00 0.05 0.00 83 1007.9
20260506043546 53 264 0.0 1.7 0.00 0.05 0.00 83 1007.9
20260506043045 53 297 0.9 1.7 0.00 0.05 0.00 84 1008.0
20260506042545 53 135 0.0 0.9 0.00 0.05 0.00 84 1007.9
20260506042045 53 136 0.0 0.0 0.00 0.05 0.00 84 1007.9
20260506041543 52 136 0.0 0.0 0.00 0.05 0.00 84 1008.0
20260506041042 53 136 0.0 0.0 0.00 0.05 0.00 84 1008.0
20260506040541 53 136 0.0 0.0 0.00 0.05 0.00 83 1007.9
20260506040042 53 135 0.0 0.0 0.00 0.05 0.00 83 1007.9
20260506035541 53 135 0.0 0.9 0.00 0.05 0.05 82 1008.0
20260506035039 54 136 0.0 0.9 0.00 0.05 0.05 81 1008.1
20260506034539 54 135 0.0 0.9 0.00 0.05 0.05 81 1008.2
20260506034039 54 135 0.0 0.9 0.00 0.05 0.05 81 1008.1
20260506033538 54 134 0.0 0.9 0.00 0.05 0.05 81 1008.0
20260506033038 54 132 0.0 2.6 0.00 0.05 0.05 81 1008.0
20260506032542 54 287 0.0 2.6 0.00 0.05 0.05 81 1008.2
20260506032041 54 296 0.0 2.6 0.00 0.05 0.05 81 1008.1
20260506031537 54 329 0.0 3.5 0.00 0.05 0.05 82 1008.3
20260506031040 54 70 0.0 4.3 0.00 0.05 0.05 82 1008.1
20260506030539 54 302 1.7 7.0 0.00 0.05 0.05 82 1008.1
20260506030037 54 267 0.9 7.0 0.00 0.05 0.05 83 1008.0
20260506025534 54 281 0.9 5.2 0.00 0.05 0.05 84 1008.1
20260506025033 54 301 2.6 4.3 0.00 0.05 0.05 85 1007.9
20260506024543 54 288 0.0 0.9 0.00 0.05 0.05 85 1007.9
20260506024031 55 100 0.0 0.9 0.00 0.05 0.05 84 1007.8
20260506023631 55 165 0.0 2.6 0.00 0.05 0.05 84 1007.8
20260506023031 55 98 0.9 2.6 0.00 0.05 0.05 83 1007.5
20260506022530 56 149 0.0 2.6 0.00 0.05 0.05 84 1007.7
20260506022027 57 116 0.0 5.2 0.00 0.05 0.05 83 1007.6
20260506021526 57 60 0.9 5.2 0.00 0.05 0.05 83 1007.7
20260506021026 58 271 0.0 4.3 0.00 0.05 0.05 84 1007.7
20260506020526 59 87 0.9 4.3 0.00 0.05 0.05 83 1007.5
20260506020023 60 136 0.9 2.6 0.00 0.05 0.05 83 1007.5
20260506015525 60 323 0.0 1.7 0.00 0.05 0.05 83 1007.2
20260506015024 60 274 0.0 1.7 0.00 0.05 0.05 83 1007.2
20260506014524 60 305 0.0 2.6 0.00 0.05 0.05 82 1007.2
20260506014022 60 302 0.0 2.6 0.00 0.05 0.05 82 1007.1
20260506013522 60 289 0.0 0.9 0.00 0.05 0.05 83 1006.8
20260506013022 61 290 0.0 5.2 0.00 0.05 0.05 82 1006.7
20260506012522 61 260 1.7 6.1 0.00 0.05 0.05 80 1006.7
20260506012024 62 296 3.5 6.1 0.00 0.05 0.05 77 1006.6
20260506011521 62 299 0.9 4.3 0.00 0.05 0.05 78 1006.3
20260506011021 62 255 0.9 4.3 0.00 0.05 0.05 77 1006.3
20260506010521 62 296 0.9 7.0 0.00 0.05 0.05 78 1006.2
20260506010021 62 296 1.7 7.0 0.00 0.05 0.05 78 1006.2
20260506005520 62 304 0.9 7.0 0.00 0.05 0.05 80 1006.2
20260506005020 61 299 2.6 5.2 0.00 0.05 0.05 84 1006.1
20260506004521 60 285 1.7 7.8 0.00 0.05 0.05 90 1006.1
20260506004020 59 276 5.2 9.6 0.00 0.05 0.05 93 1006.1
20260506003520 59 258 3.5 9.6 0.00 0.05 0.05 93 1006.1
20260506003020 59 267 2.6 9.6 0.00 0.05 0.05 93 1006.1
20260506002519 58 294 4.3 9.6 0.00 0.05 0.05 93 1005.8
20260506002019 58 265 5.2 8.7 0.00 0.05 0.05 92 1005.8
20260506001519 58 280 3.5 9.6 0.00 0.05 0.05 92 1005.8
20260506001018 59 295 4.3 10.4 0.00 0.05 0.05 91 1005.9
20260506000516 59 263 6.1 13.9 0.00 0.05 0.05 89 1005.9
20260506000016 62 283 7.8 13.9 0.00 0.05 0.05 80 1006.1
20260505235515 63 277 7.8 13.0 0.00 0.05 0.05 71 1006.3
20260505235015 63 262 6.1 12.2 0.00 0.05 0.05 71 1005.7
20260505234526 63 290 5.2 9.6 0.00 0.05 0.05 72 1005.5
20260505234015 64 262 6.1 11.3 0.00 0.05 0.05 71 1005.6
20260505233515 64 285 5.2 12.2 0.00 0.05 0.05 69 1005.4
20260505233019 63 316 6.1 12.2 0.00 0.05 0.05 70 1005.2
20260505232526 64 280 4.3 13.9 0.00 0.05 0.05 70 1005.2
20260505232010 64 205 6.1 13.9 0.00 0.05 0.05 70 1005.0
20260505231519 63 145 3.5 12.2 0.00 0.05 0.05 72 1005.0
20260505231002 63 278 4.3 9.6 0.00 0.05 0.05 72 1005.1
20260505230515 63 280 5.2 9.6 0.00 0.05 0.05 72 1005.1
20260505230042 63 255 5.2 11.3 0.00 0.05 0.05 72 1005.0
20260505225513 63 295 5.2 11.3 0.00 0.05 0.05 72 1004.9
20260505225015 63 260 3.5 8.7 0.00 0.05 0.05 72 1004.8
20260505224528 63 283 4.3 7.8 0.01 0.05 0.05 73 1004.8
20260505224014 63 273 4.3 7.8 0.01 0.05 0.05 72 1004.9
20260505223527 63 289 4.3 10.4 0.01 0.05 0.05 74 1004.8
20260505223010 62 302 4.3 10.4 0.02 0.05 0.05 75 1004.7
20260505222523 62 280 6.1 9.6 0.02 0.05 0.05 76 1004.8
20260505222009 61 280 6.1 9.6 0.02 0.05 0.05 77 1004.8
20260505221520 61 290 4.3 9.6 0.02 0.05 0.05 78 1004.9
20260505221010 60 305 4.3 11.3 0.02 0.05 0.05 81 1005.1
20260505220518 60 294 2.6 11.3 0.03 0.05 0.05 83 1005.4
20260505220004 60 280 7.0 13.9 0.03 0.05 0.05 83 1005.7
20260505215516 60 289 9.6 13.9 0.03 0.05 0.05 83 1005.7
20260505215021 60 274 7.0 14.8 0.03 0.05 0.05 84 1005.8
20260505214511 61 289 7.8 20.9 0.02 0.04 0.04 82 1005.9
20260505214017 61 294 8.7 20.9 0.02 0.04 0.04 81 1005.8
20260505213510 61 266 8.7 19.1 0.02 0.04 0.04 81 1006.1
20260505213016 62 307 11.3 19.1 0.01 0.03 0.03 81 1006.3
20260505212510 62 269 11.3 17.4 0.01 0.03 0.03 81 1006.1
20260505212016 62 298 10.4 17.4 0.01 0.03 0.03 80 1005.7
20260505211528 62 293 9.6 14.8 0.01 0.03 0.03 79 1005.5
20260505211014 64 269 8.7 18.2 0.01 0.03 0.03 75 1005.4
20260505210524 65 245 9.6 18.2 0.00 0.02 0.02 69 1005.6
20260505210015 68 314 2.6 12.2 0.00 0.02 0.02 61 1004.8
20260505205525 71 297 1.7 16.5 0.00 0.02 0.02 52 1004.5
20260505205014 74 273 3.5 9.6 0.00 0.02 0.02 38 1003.8
20260505204522 74 304 5.2 20.0 0.00 0.02 0.02 37 1003.4
20260505204010 74 296 6.1 19.1 0.00 0.02 0.02 37 1003.2
20260505203519 74 293 5.2 14.8 0.00 0.02 0.02 37 1003.2
20260505203002 74 288 5.2 18.2 0.00 0.02 0.02 37 1003.1
20260505202513 74 266 9.6 20.0 0.00 0.02 0.02 36 1003.0